This demonstration page uses our WeatherBlox Daily Observations layout. Learn more.

Hourly Observations for May 26, 2018

Temp ( °F °C ) Dew Point ( °F °C ) Humidity (%) Winds ( mph kmh ) Pressure ( in mb ) Visibility ( mi km ) Precip ( " mm )
12:54 am 00:54 Clear 76 24.4 56 13.3 50 50 SSE 3 6 29.73 1007 10 16.0934 0 0
1:54 am 01:54 Clear 73 22.8 58 14.4 59 59 Calm 29.74 1007 10 16.0934 0 0
2:54 am 02:54 Clear 70 21.1 60 15.6 71 71 S 7 11 29.73 1007 10 16.0934 0 0
3:54 am 03:54 Clear 70 21.1 62 16.7 76 76 SSE 5 7 29.73 1007 10 16.0934 0 0
4:54 am 04:54 Clear 68 20 62 16.7 81 81 S 5 7 29.73 1007 10 16.0934 0 0
5:54 am 05:54 Clear 66 18.9 63 17.2 90 90 S 5 7 29.74 1007 10 16.0934 0 0
6:54 am 06:54 Sunny 68 20 64 17.8 87 87 S 5 7 29.75 1007 8 12.87472 0 0
7:54 am 07:54 Sunny 73 22.8 65 18.3 76 76 WSW 5 7 29.76 1008 9 14.48406 0 0
8:54 am 08:54 Sunny 78 25.6 65 18.3 64 64 W 3 6 29.77 1008 9 14.48406 0 0
9:54 am 09:54 Sunny 84 28.9 65 18.3 53 53 Calm 29.77 1008 10 16.0934 0 0
10:54 am 10:54 Sunny 87 30.6 65 18.3 48 48 Calm 29.77 1008 10 16.0934 0 0
11:54 am 11:54 Sunny 90 32.2 63 17.2 41 41 SE 5 7 29.76 1008 10 16.0934 0 0
12:54 pm 12:54 Sunny 94 34.4 62 16.7 35 35 ESE 5 7 29.74 1007 10 16.0934 0 0
1:54 pm 13:54 Sunny 96 35.6 60 15.6 30 30 SE 3 6 29.73 1007 10 16.0934 0 0
2:54 pm 14:54 Sunny 98 36.7 57 13.9 25 25 VRB 3 6 29.72 1006 10 16.0934 0 0
3:54 pm 15:54 Sunny 99 37.2 56 13.3 24 24 NW 3 6 29.71 1006 10 16.0934 0 0
4:54 pm 16:54 Sunny 97 36.1 57 13.9 26 26 SSW 6 9 29.7 1006 10 16.0934 0 0
5:54 pm 17:54 Sunny 98 36.7 57 13.9 25 25 Calm 29.69 1005 10 16.0934 0 0
6:54 pm 18:54 Sunny 96 35.6 58 14.4 28 28 ESE 3 6 29.68 1005 10 16.0934 0 0
7:54 pm 19:54 Sunny 94 34.4 59 15 31 31 Calm 29.69 1005 10 16.0934 0 0
8:54 pm 20:54 Clear 87 30.6 61 16.1 42 42 S 7 11 29.7 1006 10 16.0934 0 0
9:54 pm 21:54 Clear 86 30 59 15 40 40 S 5 7 29.72 1007 10 16.0934 0 0
10:54 pm 22:54 Clear 82 27.8 60 15.6 47 47 SSE 5 7 29.73 1007 10 16.0934 0 0
11:54 pm 23:54 Clear 80 26.7 61 16.1 52 52 ESE 3 6 29.74 1007 10 16.0934 0 0

Powered by AerisWeather